Retour au catalogue

STARLINK-2658

ActifCommunicationsVLEO
NORAD 48473·PAYLOAD·🇺🇸 United States

Lancé May 9, 2021 depuis Cape Canaveral Space Force Station

Loading…

Prochains Passages (prochaines 24 heures)

TLE

FraisSource: CelesTrak SupGP

Époque: Sep 15, 2026, 01:37 UTC

1 48473C 21040AX  26258.06784722 -.00020189  00000+0 -64906-3 0  2589
2 48473  53.1601  29.6823 0000911  97.9956 332.1309 15.31720285    16

Suivez STARLINK-2658 en temps réel avec AllMySat

Download on the App Store